Fri, 27 Jan 2023 15:56:13 UTC | login

Latest Builds in tag sclo7-rh-perl520-rh-candidate

Latest: Built by:
Type: Inherited:
0 | 1 | 2 | 3 | 4 | 5 | 6 | 7 | 8 | 9 | a | b | c | d | e | f | g | h | i | j | k | l | m | n | o | p | q | r | s | t | u | v | w | x | y | z | all
Page:
Builds 1 through 50 of 137 >>>
ID descending sort NVR Tag Built by Finished State
6643 rh-perl520-perl-version-0.99.09-3.el7 sclo7-rh-perl520-rh-candidate hhorak 2015-10-05 00:50:03 complete
6628 rh-perl520-perl-threads-shared-1.46-310.el7 sclo7-rh-perl520-rh-candidate hhorak 2015-10-05 00:30:22 complete
6611 rh-perl520-perl-threads-1.96-1.el7 sclo7-rh-perl520-rh-candidate hhorak 2015-10-05 00:11:47 complete
6599 rh-perl520-perl-podlators-2.5.3-3.el7 sclo7-rh-perl520-rh-candidate hhorak 2015-10-04 23:54:32 complete
6583 rh-perl520-perl-parent-0.228-311.el7 sclo7-rh-perl520-rh-candidate hhorak 2015-10-04 23:36:27 complete
6563 rh-perl520-perl-local-lib-2.000015-2.el7 sclo7-rh-perl520-rh-candidate hhorak 2015-10-04 23:18:06 complete
6543 rh-perl520-perl-experimental-0.013-2.el7 sclo7-rh-perl520-rh-candidate hhorak 2015-10-04 22:52:30 complete
6519 rh-perl520-perl-constant-1.31-312.el7 sclo7-rh-perl520-rh-candidate hhorak 2015-10-04 22:23:42 complete
6494 rh-perl520-perl-autodie-2.26-3.el7 sclo7-rh-perl520-rh-candidate hhorak 2015-10-04 21:52:44 complete
6469 rh-perl520-perl-URI-1.65-2.el7 sclo7-rh-perl520-rh-candidate hhorak 2015-10-04 21:29:39 complete
6452 rh-perl520-perl-Try-Tiny-0.22-6.el7 sclo7-rh-perl520-rh-candidate hhorak 2015-10-04 21:05:35 complete
6428 rh-perl520-perl-Time-Local-1.2300-310.el7 sclo7-rh-perl520-rh-candidate hhorak 2015-10-04 20:49:23 complete
6406 rh-perl520-perl-Time-HiRes-1.9726-310.el7 sclo7-rh-perl520-rh-candidate hhorak 2015-10-04 20:25:57 complete
6395 rh-perl520-perl-Tie-IxHash-1.22-19.el7 sclo7-rh-perl520-rh-candidate hhorak 2015-10-04 20:15:01 complete
6383 rh-perl520-perl-Thread-Queue-3.05-310.el7 sclo7-rh-perl520-rh-candidate hhorak 2015-10-04 20:07:18 complete
6372 rh-perl520-perl-Text-Template-1.45-18.el7 sclo7-rh-perl520-rh-candidate hhorak 2015-10-04 19:56:55 complete
6363 rh-perl520-perl-Text-ParseWords-3.29-310.el7 sclo7-rh-perl520-rh-candidate hhorak 2015-10-04 19:46:55 complete
6349 rh-perl520-perl-Text-Glob-0.09-11.el7 sclo7-rh-perl520-rh-candidate hhorak 2015-10-04 19:36:27 complete
6338 rh-perl520-perl-Text-Diff-1.41-10.el7 sclo7-rh-perl520-rh-candidate hhorak 2015-10-04 19:26:30 complete
6325 rh-perl520-perl-Test-Warnings-0.020-1.el7 sclo7-rh-perl520-rh-candidate hhorak 2015-10-04 19:18:08 complete
6307 rh-perl520-perl-Test-Simple-1.001014-2.el7 sclo7-rh-perl520-rh-candidate hhorak 2015-10-04 19:10:40 complete
6291 rh-perl520-perl-Test-Requires-0.08-6.el7 sclo7-rh-perl520-rh-candidate hhorak 2015-10-04 16:05:37 complete
6289 rh-perl520-perl-Sub-Name-0.12-1.el7 sclo7-rh-perl520-rh-candidate hhorak 2015-10-04 16:04:50 complete
6278 rh-perl520-perl-Test-Harness-3.34-3.el7 sclo7-rh-perl520-rh-candidate hhorak 2015-10-04 15:51:56 complete
6277 rh-perl520-perl-Sub-Install-0.928-5.el7 sclo7-rh-perl520-rh-candidate hhorak 2015-10-04 15:50:25 complete
6268 rh-perl520-perl-Test-Fatal-0.014-2.el7 sclo7-rh-perl520-rh-candidate hhorak 2015-10-04 15:40:44 complete
6263 rh-perl520-perl-Sub-Exporter-0.987-5.el7 sclo7-rh-perl520-rh-candidate hhorak 2015-10-04 15:40:28 complete
6260 rh-perl520-perl-Test-FailWarnings-0.008-4.el7 sclo7-rh-perl520-rh-candidate hhorak 2015-10-04 15:32:26 complete
6253 rh-perl520-perl-Storable-2.51-4.el7 sclo7-rh-perl520-rh-candidate hhorak 2015-10-04 15:25:08 complete
6250 rh-perl520-perl-Term-ANSIColor-4.03-3.el7 sclo7-rh-perl520-rh-candidate hhorak 2015-10-04 15:21:03 complete
6244 rh-perl520-perl-Sys-Syslog-0.33-314.el7 sclo7-rh-perl520-rh-candidate hhorak 2015-10-04 15:10:07 complete
6237 rh-perl520-perl-Software-License-0.103010-5.el7 sclo7-rh-perl520-rh-candidate hhorak 2015-10-04 15:12:31 complete
6225 rh-perl520-perl-Socket-2.016-1.el7 sclo7-rh-perl520-rh-candidate hhorak 2015-10-04 14:50:57 complete
6217 rh-perl520-perl-Scalar-List-Utils-1.41-1.el7 sclo7-rh-perl520-rh-candidate hhorak 2015-10-04 14:40:33 complete
6211 rh-perl520-perl-Readonly-2.00-2.el7 sclo7-rh-perl520-rh-candidate hhorak 2015-10-04 14:31:25 complete
6208 rh-perl520-perl-Pod-Usage-1.64-3.el7 sclo7-rh-perl520-rh-candidate hhorak 2015-10-04 14:25:46 complete
6203 rh-perl520-perl-Pod-Simple-3.28-310.el7 sclo7-rh-perl520-rh-candidate hhorak 2015-10-04 14:20:52 complete
6200 rh-perl520-perl-Pod-Perldoc-3.24-7.el7 sclo7-rh-perl520-rh-candidate hhorak 2015-10-04 14:14:50 complete
6196 rh-perl520-perl-Pod-Parser-1.62-313.el7 sclo7-rh-perl520-rh-candidate hhorak 2015-10-04 14:08:23 complete
6193 rh-perl520-perl-Pod-Checker-1.71-3.el7 sclo7-rh-perl520-rh-candidate hhorak 2015-10-04 14:03:27 complete
6189 rh-perl520-perl-Perl-OSType-1.007-326.el7 sclo7-rh-perl520-rh-candidate hhorak 2015-10-04 13:57:28 complete
6185 rh-perl520-perl-PathTools-3.47-311.el7 sclo7-rh-perl520-rh-candidate hhorak 2015-10-04 13:52:06 complete
6180 rh-perl520-perl-Parse-CPAN-Meta-1.4414-312.el7 sclo7-rh-perl520-rh-candidate hhorak 2015-10-04 13:43:41 complete
6177 rh-perl520-perl-Params-Validate-1.16-4.el7 sclo7-rh-perl520-rh-candidate hhorak 2015-10-04 13:35:32 complete
6172 rh-perl520-perl-Params-Util-1.07-11.el7 sclo7-rh-perl520-rh-candidate hhorak 2015-10-04 13:29:06 complete
6167 rh-perl520-perl-Params-Classify-0.013-13.el7 sclo7-rh-perl520-rh-candidate hhorak 2015-10-04 13:21:07 complete
6159 rh-perl520-perl-Params-Check-0.38-310.el7 sclo7-rh-perl520-rh-candidate hhorak 2015-10-04 13:14:19 complete
6148 rh-perl520-perl-Package-Generator-1.106-4.el7 sclo7-rh-perl520-rh-candidate hhorak 2015-10-04 13:03:55 complete
6141 rh-perl520-perl-Package-Constants-0.06-2.el7 sclo7-rh-perl520-rh-candidate hhorak 2015-10-04 12:55:45 complete
6134 rh-perl520-perl-Module-Runtime-0.014-4.el7 sclo7-rh-perl520-rh-candidate hhorak 2015-10-04 12:50:16 complete
Page:
Builds 1 through 50 of 137 >>>